Location: Napoli
(40.8639°N, 14.2562°E)
Time: 16:37:54
(UTC+01:00)

ISS - Visible Passes

Search period start: 27 January 2021 00:00
Search period end: 06 February 2021 00:00
Orbit: 418 x 421 km, 51.6° (Epoch: 28 January)

Date Brightness Start Highest point End Pass type
(mag) Time Alt. Az. Time Alt. Az. Time Alt. Az.
27 Jan -1.4 18:01:51 10° NW 18:03:49 14° N 18:05:47 10° NNE visible
28 Jan -1.4 18:52:12 10° NNW 18:53:50 14° N 18:53:50 14° N visible
29 Jan -1.4 18:04:45 10° NNW 18:06:29 13° N 18:08:15 10° NNE visible
29 Jan -0.6 19:41:24 10° NW 19:41:27 10° NW 19:41:27 10° NW visible
30 Jan -1.8 18:54:10 10° NNW 18:56:07 18° N 18:56:07 18° N visible
31 Jan -1.7 18:06:55 10° NNW 18:09:06 16° NNE 18:10:50 12° NE visible
31 Jan -0.9 19:43:13 10° NW 19:43:49 14° NW 19:43:49 14° NW visible
01 Feb -2.6 18:55:57 10° NW 18:58:37 31° N 18:58:37 31° N visible
02 Feb -2.4 18:08:43 10° NW 18:11:33 24° NNE 18:13:31 15° ENE visible
02 Feb -1.2 19:45:14 10° WNW 19:46:30 21° WNW 19:46:30 21° WNW visible
03 Feb -3.9 18:57:49 10° NW 19:01:13 82° NE 19:01:32 70° ESE visible
04 Feb -3.5 18:10:28 10° NW 18:13:46 50° NNE 18:16:44 12° ESE visible
04 Feb -1.1 19:47:51 10° W 19:49:46 18° WSW 19:49:46 18° WSW visible
05 Feb -2.1 19:00:00 10° WNW 19:03:03 32° SW 19:05:11 16° SSE visible
